Regional Weather Roundup
Issued by NWS

Home | Current Version | Previous Version | Text Only | Print | Product List | Glossary On
Versions: 1 2 3 4 5 6 7 8 9 10 11 12 13 14 15 16 17 18 19 20 21 22 23 24 25 26 27 28 29 30 31 32 33 34 35 36 37 38 39 40 41 42 43 44 45 46 47 48 49 50
000
ASUS43 KBIS 300410
RWRND

NORTH DAKOTA REGIONAL WEATHER ROUNDUP
NATIONAL WEATHER SERVICE BISMARCK ND
1100 PM CDT FRI AUG 29 2014

NOTE: "FAIR" INDICATES FEW OR NO CLOUDS BELOW 12,000 FEET WITH NO
SIGNIFICANT WEATHER AND/OR OBSTRUCTIONS TO VISIBILITY.


NDZ001>003-009>011-017-300500-
NORTHWEST NORTH DAKOTA

CITY           SKY/WX    TMP DP  RH WIND       PRES   REMARKS
WILLISTON      CLEAR     60  49  66 CALM      29.96S
MINOT          CLEAR     54  48  80 E5        29.96F
MINOT AFB      CLEAR     51  50  97 SE3       29.96S
$$

NDZ018>021-031>035-040>046-300500-
SOUTHWEST NORTH DAKOTA

CITY           SKY/WX    TMP DP  RH WIND       PRES   REMARKS
BISMARCK       CLEAR     57  53  86 E5        29.98S
DICKINSON      CLEAR     56  50  80 E7        29.98S
GARRISON         N/A     55  51  86 NE3       29.98S
HETTINGER ARPT CLEAR     54  50  86 E8        30.01R
$$

NDZ004>008-012>016-024-026-027-054-300500-
NORTHEAST NORTH DAKOTA

CITY           SKY/WX    TMP DP  RH WIND       PRES   REMARKS
GRAND FORKS    CLOUDY    62  55  77 N12       29.91R
GRND FRKS AFB  CLOUDY    60  59  97 N12       29.93R
DEVILS LAKE    CLEAR     54  46  76 NE5       29.96R
$$

NDZ022-023-025-028>030-036>039-047>053-300500-
SOUTHEAST NORTH DAKOTA

CITY           SKY/WX    TMP DP  RH WIND       PRES   REMARKS
FARGO          CLOUDY    62  56  80 N18G24    29.86S
JAMESTOWN      CLOUDY    61  55  81 N8        29.94R
$$




USA.gov is the U.S. government's official web portal to all federal, state and local government web resources and services.